Location: Gensac
(43.2177°N, 1.1313°E)
Time: 03:18:02
(UTC+00:00)

Meteor 2-3 Rocket - Pass Details

Date: 08 December 2025
Orbit: 842 x 883 km, 81.2° (Epoch: 12 January)

Event Time Altitude Azimuth Distance (km) Brightness Sun altitude
Rises 05:01:16 0° 181° (S) 3,458 7.0 -23.5°
Reaches altitude 10° 05:03:43 10° 179° (S) 2,520 6.3 -23.1°
Maximum altitude 05:09:24 69° 97° (E) 928 4.0 -22.1°
Drops below altitude 10° 05:15:04 10° 15° (NNE) 2,511 6.2 -21.0°
Sets 05:17:30 0° 13° (NNE) 3,446 6.9 -20.6°
